Simultaneous Nadir Overpasses (SNOs) Predictions

Prediction of SNOs between AQUA and NOAA-19 Satellite Orbit:

Table of predicted SNOs for the next 14.0 days since TLE Epoch: 11/4/2016
Index Date (AQUA) Time (AQUA) Lat,Lon (AQUA) SZA (AQUA ) Date (NOAA-19) Time (NOAA-19) Lat,Lon (NOAA-19) SZA (NOAA-19 ) Distance(km) Time Diff (sec)
1 11/04/2016 22:21:07 -80.93, -15.61 81.70 11/04/2016 22:20:18 -80.94, -15.78 81.66 3.11 49
2 11/04/2016 23:10:34 80.94, 151.96 98.33 11/04/2016 23:11:23 80.93, 151.96 98.30 0.83 49
3 11/07/2016 03:54:52 80.95, 80.74 99.00 11/07/2016 03:54:21 80.94, 80.86 99.00 2.45 31
4 11/07/2016 04:44:18 -80.94,-111.49 81.01 11/07/2016 04:45:15 -80.93,-111.31 81.06 3.28 57
5 11/09/2016 09:28:35 -80.93, 177.63 80.41 11/09/2016 09:28:13 -80.94, 177.56 80.38 1.60 22
6 11/11/2016 15:02:19 80.93, -85.84 100.23 11/11/2016 15:02:16 80.94, -85.95 100.25 2.12 3
7 11/13/2016 20:36:03 -80.93, 10.67 79.17 11/13/2016 20:36:08 -80.93, 10.79 79.18 2.18 5
8 11/16/2016 01:20:23 -81.01, -61.42 78.46 11/16/2016 01:19:09 -80.96, -61.54 78.45 5.76 74
9 11/16/2016 02:09:47 80.95, 107.03 101.44 11/16/2016 02:10:11 80.94, 107.03 101.42 0.92 24
10 11/18/2016 06:54:04 80.95, 35.93 101.98 11/18/2016 06:53:08 80.95, 36.03 101.99 1.98 56




NCC Satellite Simultaneous Nadir Overpasses (SNOs) Prediction Service
